Location: Standeford and Andreas Observatories
(44.1397°N, 93.9969°W)
Time: 14:07:19
(UTC-06:00)

Cosmos 1500 Rocket - Visible Passes

Search period start: 18 January 2017 00:00
Search period end: 28 January 2017 00:00
Orbit: 603 x 632 km, 82.5° (Epoch: 18 January)

Date Brightness Start Highest point End Pass type
(mag) Time Alt. Az. Time Alt. Az. Time Alt. Az.
18 Jan 5.1 04:52:33 34° ENE 04:52:58 35° ENE 04:57:02 10° SE visible
18 Jan 4.7 06:29:45 21° WNW 06:30:34 22° W 06:34:00 10° SW visible
18 Jan 5.1 18:59:13 10° SW 19:03:12 36° WNW 19:07:15 10° N visible
19 Jan 4.1 05:10:34 56° ESE 05:10:34 56° ESE 05:14:24 10° SSE visible
19 Jan 5.4 06:47:46 12° W 06:47:46 12° W 06:49:08 10° WSW visible
19 Jan 4.1 17:38:25 10° SSE 17:42:22 36° E 17:46:21 10° NNE visible
19 Jan 6.0 19:17:02 10° WSW 19:20:19 21° WNW 19:23:39 10° NNW visible
20 Jan 4.5 05:28:40 36° S 05:28:40 36° S 05:31:21 10° S visible
20 Jan 3.5 17:54:55 10° S 17:59:12 67° E 18:03:32 10° NNE visible
20 Jan 6.6 19:35:46 10° W 19:37:33 12° WNW 19:39:20 10° NW visible
21 Jan 5.5 05:46:47 17° SSW 05:46:47 17° SSW 05:47:54 10° SSW visible
21 Jan 4.0 18:11:49 10° SSW 18:16:06 66° W 18:20:28 10° N visible
22 Jan 5.2 18:29:08 10° SW 18:33:08 36° WNW 18:37:11 10° N visible
23 Jan 6.1 18:46:58 10° WSW 18:50:15 21° WNW 18:53:35 10° NNW visible
24 Jan 6.6 19:05:44 10° W 19:07:29 12° WNW 19:09:15 10° NW visible
25 Jan 4.1 17:41:44 10° SSW 17:46:02 65° W 17:50:26 10° N visible
26 Jan 5.3 17:59:04 10° SW 18:03:03 35° WNW 18:07:07 10° N visible
27 Jan 6.2 18:16:54 10° WSW 18:20:11 21° WNW 18:23:31 10° NNW visible
